#timestamp,LO_Frequency,Hit,StdDev 
1586422815.5,286046986.7,P
1586422835.4,286046982.6,Y
1586422855.2,286046993.1,P
1586422875.0,286046993.2,P
1586422875.9,286046993.2,P
1586422895.8,286046991.1,Y
1586422915.6,286046997.4,P
1586422935.5,286046994.8,N
1586422955.3,286046992.3,P
1586422975.1,286046993.4,Y
1586422995.9,286047001.1,P
1586423015.7,286046995.4,N
1586423035.5,286046993.6,N
1586423055.4,286046993.0,N
1586423075.2,286046987.7,Y
1586423095.1,286046993.5,P
1586423096.0,286046993.5,P
1586423115.8,286046990.4,P
1586423135.7,286046992.4,Y
1586423155.5,286047000.4,P
1586423175.3,286047002.9,N
1586423195.2,286046999.5,N
1586423215.0,286046990.3,N
1586423215.9,286046990.3,N
1586423235.8,286046985.9,N
1586423255.6,286046981.3,Y
1586423275.4,286046985.2,P
1586423295.3,286046978.0,P
1586423315.1,286046975.6,P
1586423335.9,286046972.7,Y
1586423355.7,286046991.4,P
1586423375.5,286046993.2,N
1586423395.4,286046995.8,N
1586423415.2,286046997.2,N
1586423435.0,286046998.7,N
1586423435.9,286046998.7,N
1586423455.8,286046998.7,N
1586423475.6,286047001.0,N
1586423495.5,286047000.2,N
1586423515.3,286047007.5,N
1586423535.1,286047006.3,N
1586423555.9,286047006.9,N
1586423575.7,286047003.3,N
1586423595.5,286047000.0,N
1586423615.4,286047000.8,N
1586423635.2,286046997.2,N
1586423655.1,286046994.1,N
1586423656.0,286046994.1,N
1586423675.8,286046994.3,N
1586423695.6,286046994.3,N
1586423715.5,286046996.4,N
1586423735.3,286046994.4,N
1586423755.1,286046984.1,N
1586423775.9,286046979.1,Y
1586423795.7,286046975.7,P
1586423815.6,286046972.5,N
1586423835.4,286046972.7,N
1586423855.2,286046971.9,N
1586423875.1,286046971.8,N
1586423876.0,286046971.8,Y
1586423895.8,286046994.9,P
1586423915.7,286046996.8,N
1586423935.5,286046999.0,N
1586423955.3,286047004.0,N
1586423975.2,286047003.5,N
1586423995.9,286047006.8,N
1586424015.7,286047008.0,N
1586424035.6,286047009.6,N
1586424055.4,286047013.4,N
1586424075.2,286047012.8,N
1586424095.1,286047011.5,N
1586424096.0,286047011.5,N
1586424115.8,286047012.3,N
1586424135.7,286047009.8,N
1586424155.5,286047008.8,N
1586424175.3,286047007.4,N
1586424195.2,286047008.8,N
1586424215.0,286047005.1,N
1586424215.9,286047005.1,N
1586424235.8,286047005.2,N
1586424255.6,286047004.7,N
1586424275.4,286047004.3,N
1586424295.3,286047001.9,N
1586424315.1,286047002.6,N
1586424335.8,286046998.5,N
1586424355.7,286046994.6,N
1586424375.5,286046983.1,N
1586424395.4,286046980.7,N
1586424415.2,286046981.6,N
1586424435.0,286046975.8,N
1586424435.9,286046975.8,N
1586424455.8,286046973.1,N
1586424475.6,286046973.5,N
1586424495.5,286046972.5,N
1586424515.3,286046975.9,N
1586424535.1,286046977.8,N
1586424555.9,286046980.3,N
1586424575.7,286046976.1,N
1586424595.6,286046978.5,N
1586424615.4,286046973.1,N
1586424635.2,286046974.3,N
1586424655.1,286046972.3,N
1586424656.0,286046972.3,N
1586424675.8,286046966.5,N
1586424695.6,286046961.3,N
1586424715.5,286046965.7,N
1586424735.3,286046959.1,N
1586424755.2,286046951.1,Y
1586424775.0,286046960.1,P
1586424775.9,286046960.1,P
1586424795.8,286046955.3,P
1586424815.6,286046955.2,Y
1586424835.4,286046996.4,P
1586424855.3,286046992.8,N
1586424875.1,286046986.2,N
1586424895.9,286046981.0,N
1586424915.7,286046981.5,N
1586424935.5,286046980.0,N
1586424955.4,286046975.0,N
1586424975.2,286046972.8,N
1586424995.0,286046975.4,N
1586424995.9,286046975.4,N
1586425015.8,286046973.1,Y
1586425035.6,286046992.5,P
1586425055.5,286046992.9,N
1586425075.3,286046996.1,N
1586425095.1,286046998.8,N
1586425115.9,286046998.1,N
1586425135.7,286047000.0,N
1586425155.5,286047007.5,N
1586425175.4,286047011.5,N
1586425195.2,286047017.0,N
1586425215.1,286047020.3,N
1586425216.0,286047020.3,N
1586425235.8,286047020.1,N
1586425255.7,286047019.2,N
1586425275.5,286047018.7,N
1586425295.3,286047015.3,N
1586425315.2,286047014.6,N
1586425335.0,286047014.6,N
1586425335.9,286047014.6,N
1586425355.8,286047017.2,N
1586425375.6,286047015.7,N
1586425395.5,286047017.1,N
1586425415.3,286047017.1,N
1586425435.1,286047013.2,N
1586425455.9,286047011.1,N
1586425475.7,286047015.4,N
1586425495.5,286047018.1,N
1586425515.4,286047018.3,N
1586425535.2,286047018.4,N
1586425555.1,286047015.8,N
1586425556.0,286047015.8,N
1586425575.8,286047012.9,N
1586425595.6,286047017.0,N
1586425615.5,286047018.3,N
1586425635.3,286047011.3,N
1586425655.2,286047008.6,N
1586425675.9,286047006.7,N
1586425695.7,286047008.6,N
1586425715.6,286047008.4,N
1586425735.4,286047007.9,N
1586425755.2,286047005.8,N
1586425775.1,286046999.7,N
1586425776.0,286046999.7,N
1586425795.8,286047002.0,N
1586425815.7,286047000.6,N
1586425835.5,286046993.8,N
1586425855.3,286046988.5,N
1586425875.2,286046988.6,N
1586425895.0,286046987.8,N
1586425895.9,286046987.8,N
1586425915.8,286046986.3,N
1586425935.6,286046984.0,N
1586425955.4,286046984.9,N
1586425975.3,286046982.8,N
1586425995.1,286046984.0,N
1586426015.9,286046987.0,N
1586426035.7,286046989.4,N
1586426055.5,286046992.4,N
1586426075.4,286046991.8,N
1586426095.2,286046993.5,N
1586426115.1,286046990.6,N
1586426116.0,286046990.6,N
1586426135.8,286046986.6,N
1586426155.6,286046980.8,N
1586426175.5,286046979.3,N
1586426195.3,286046977.7,N
1586426215.2,286046980.4,N
1586426235.9,286046981.8,N
1586426255.7,286046981.2,N
1586426275.6,286046978.9,N
1586426295.4,286046980.0,N
1586426315.3,286046977.9,Y
1586426335.1,286046991.3,P
1586426336.0,286046991.3,P
1586426355.8,286046987.5,P
1586426375.7,286046985.7,Y
1586426395.5,286046995.2,P
